Weather History for Riverside March, CA

Change the Weather History Date:

Wednesday, June 19, 2013

  Actual Average Record
Temperature  
Mean Temperature 69 °F -  
Max Temperature 85 °F 84 °F 105 °F (2008)
Min Temperature 54 °F 56 °F 51 °F (2005)
Cooling Degree Days 4    
Growing Degree Days 19 (Base 50)    
Moisture  
Dew Point 55 °F    
Average Humidity 65    
Maximum Humidity 100    
Minimum Humidity 39    
Precipitation  
Precipitation 0.00 in - - ()
Sea Level Pressure  
Sea Level Pressure 29.82 in    
Wind  
Wind Speed 5 mph (WNW)    
Max Wind Speed 15 mph    
Max Gust Speed 20 mph    
Visibility 10 miles    
Events      
Averages and records for this station are not official NWS values.
T = Trace of Precipitation, MM = Missing Value Source: NWS Daily Summary

Daily Weather History Graph

Daily Weather History Graph

Search for Another Location

Airport:

Trip Planner

Search our weather history database for the weather conditions in past years. The results will help you decide how hot, cold, wet, or windy it might be!

Date:

Astronomy

Jun. 19, 2013 Rise Set
Actual Time 5:38 AM PDT 8:02 PM PDT
Civil Twilight 5:08 AM PDT 8:32 PM PDT
Nautical Twilight 4:33 AM PDT 9:07 PM PDT
Astronomical Twilight 3:53 AM PDT 9:47 PM PDT
Moon 4:07 PM PDT (6/19) 2:17 AM PDT (6/19)
Length of Visible Light 15h 23m
Length of Day
14h 24m
Waxing Gibbous, 81% of the Moon is Illuminated
Jun 19
Waxing Gibbous
Jun 23
Full
Jun 29
Last Quarter
Jul 8
New
Jul 15
First Quarter

Hourly Weather History & Observations

Time (PDT) Temp. Heat Index Dew Point Humidity Pressure Visibility Wind Dir Wind Speed Gust Speed Precip Events Conditions
12:58 AM 59.7 °F - 55.8 °F 87% 29.83 in 10.0 mi NW 2.3 mph - N/A   Clear
1:58 AM 57.7 °F - 54.5 °F 89% 29.81 in 10.0 mi West 3.5 mph - N/A   Clear
2:58 AM 56.1 °F - 52.5 °F 88% 29.81 in 10.0 mi West 3.5 mph - N/A   Clear
3:58 AM 55.2 °F - 52.2 °F 89% 29.81 in 10.0 mi West 2.3 mph - N/A   Clear
4:58 AM 55.8 °F - 55.8 °F 100% 29.81 in 9.0 mi Calm Calm - N/A   Clear
5:58 AM 54.1 °F - 53.1 °F 96% 29.82 in 10.0 mi SE 2.3 mph - N/A   Clear
6:58 AM 57.9 °F - 55.8 °F 92% 29.84 in 10.0 mi ESE 4.6 mph - N/A   Clear
7:58 AM 61.0 °F - 57.4 °F 88% 29.86 in 10.0 mi ENE 1.2 mph - N/A   Clear
8:58 AM 67.5 °F - 59.0 °F 74% 29.85 in 10.0 mi Variable 3.5 mph - N/A   Clear
9:58 AM 71.8 °F - 60.1 °F 67% 29.84 in 10.0 mi Variable 3.5 mph - N/A   Clear
10:58 AM 73.9 °F - 58.5 °F 58% 29.84 in 10.0 mi Variable 3.5 mph - N/A   Clear
11:58 AM 77.5 °F - 58.3 °F 51% 29.83 in 10.0 mi NNW 6.9 mph - N/A   Clear
12:58 PM 80.6 °F 80.6 °F 56.1 °F 43% 29.82 in 10.0 mi NW 6.9 mph - N/A   Clear
1:58 PM 82.8 °F 82.2 °F 57.0 °F 41% 29.81 in 10.0 mi NW 9.2 mph - N/A   Clear
2:58 PM 84.6 °F 83.7 °F 57.2 °F 39% 29.79 in 10.0 mi NW 15.0 mph 19.6 mph N/A   Clear
3:58 PM 83.5 °F 83.1 °F 58.3 °F 42% 29.79 in 10.0 mi WNW 13.8 mph - N/A   Clear
4:58 PM 81.7 °F 81.1 °F 54.3 °F 39% 29.78 in 10.0 mi WNW 12.7 mph - N/A   Clear
5:58 PM 80.6 °F 80.6 °F 56.1 °F 43% 29.78 in 10.0 mi WNW 13.8 mph - N/A   Clear
6:58 PM 77.4 °F - 55.2 °F 46% 29.79 in 10.0 mi WNW 12.7 mph - N/A   Clear
7:58 PM 73.2 °F - 53.8 °F 50% 29.80 in 10.0 mi NW 8.1 mph - N/A   Clear
8:58 PM 69.8 °F - 52.5 °F 54% 29.81 in 10.0 mi NW 5.8 mph - N/A   Clear
9:58 PM 66.0 °F - 51.4 °F 59% 29.82 in 10.0 mi WNW 3.5 mph - N/A   Clear
10:58 PM 67.6 °F - 51.1 °F 55% 29.82 in 10.0 mi SSW 2.3 mph - N/A   Clear
11:58 PM 64.2 °F - 55.0 °F 72% 29.83 in 10.0 mi ESE 4.6 mph - N/A   Clear